MKJS

Montego Bay/Sangster International Airport

Airport
ICAO code
MKJS
IATA Code
MBJ
Summary
ICAO Region
CARSAM
ICAO Territory
Location

Montego Bay,

Serving
Montego Bay
Elevation
4 ft
Coordinates
18° 30' 4" N , 77° 54' 48" W
KCC
Airport WX
Tropical Revolving Storm
Metar
MKJS 192200Z 16006KT 9999 FEW020 SCT022CB 27/24 Q1010 RETS

Description

International airport serving Montego Bay, Jamaica.

Climatology

Tropical Savanna climate (Köppen climate classification Aw)

Runways

Designator Length Width Surface Rops
7/25 2662 46 ASP Yes/Yes

Airport map

Aerial View

SKYbrary Partners:

Safety knowledge contributed by: